Home   Weather   Elbląg   Past weeks

Flag for Poland Past Weather in Elbląg, Poland — Yesterday and Last 2 Weeks

Now
68 °F

Scattered clouds.


Feels Like: 68 °F
Forecast: 56 / 74 °F
Wind: 6 mph from Northwest

Location: Hel

Current Time: Aug 30, 2016 at 7:17:05 PM

Latest Report: Aug 30, 2016 at 2:00 PM


Visibility: 16 mi

Pressure: 30.17 "Hg

Humidity: 63%

Dew Point: 55 °F

Location of ElblągLocation

Past Weather in Elbląg — Graph

°F

Elbląg Temperature Yesterday

Maximum temperature yesterday: 74 °F (at 1:00 PM)
Minimum temperature yesterday: 63 °F (at 10:00 PM)
Average temperature yesterday: 68 °F

High & Low Weather Summary for the Past Weeks

 TemperatureHumidityPressure
High78 °F (Aug 26, 2:00 PM)99% (Aug 22, 4:00 AM)30.35 "Hg (Aug 22, 4:00 AM)
Low55 °F (Aug 16, 11:00 PM)51% (Aug 16, 2:00 PM)29.72 "Hg (Aug 18, 8:00 AM)
Average64 °F84%30.05 "Hg
* Reported Aug 15 2:00 PM — Aug 30 2:00 PM, Elbląg, Weather by CustomWeather, © 2016

Note: Actual official high and low records may vary slightly from our data, if they occured in-between our weather recording intervals... More about our weather records

Advertising

Elbląg Weather History for the Previous 24 Hours

Scroll right to see more
 ConditionsComfort  
Time TempWeatherWind HumidityBarometerVisibility
2:00 PM
Tue, Aug 30
68 °FScattered clouds.6 mph63%30.17 "Hg16 mi
1:00 PM68 °FScattered clouds.6 mph67%30.16 "Hg16 mi
12:00 PM67 °FScattered clouds.7 mph69%30.14 "Hg16 mi
11:00 AM63 °FPartly sunny.7 mph80%30.12 "Hg16 mi
10:00 AM63 °FPartly sunny.7 mph81%30.10 "Hg16 mi
9:00 AM62 °FScattered clouds.9 mph80%30.07 "Hg16 mi
8:00 AM61 °FPartly sunny.8 mph83%30.05 "Hg16 mi
7:00 AM60 °FOvercast.7 mph88%30.03 "Hg12 mi
6:00 AM61 °FPartly sunny.8 mph83%30.01 "Hg16 mi
5:00 AM60 °FPassing clouds.8 mph83%30.01 "Hg16 mi
4:00 AM61 °FPassing clouds.7 mph78%30.00 "Hg19 mi
3:00 AM61 °FPassing clouds.7 mph74%29.99 "Hg19 mi
2:00 AM61 °FPassing clouds.7 mph77%29.98 "Hg19 mi
1:00 AM62 °FPassing clouds.8 mph78%29.97 "Hg16 mi
12:00 AM63 °FPassing clouds.8 mph81%29.96 "Hg16 mi
11:00 PM
Mon, Aug 29
63 °FPassing clouds.7 mph80%29.95 "Hg16 mi
10:00 PM63 °FPassing clouds.8 mph80%29.93 "Hg16 mi
9:00 PM64 °FPassing clouds.9 mph76%29.92 "Hg19 mi
8:00 PM65 °FOvercast.8 mph75%29.91 "Hg19 mi
7:00 PM66 °FScattered clouds.9 mph70%29.90 "Hg19 mi
Weather by CustomWeather, © 2016

See weather overviewHow to use our weather pages